EW2874 Weather Reports


Display with metric or nautical units.
time (UTC)temp
F
wind
direction
speed
MPH
gust
MPH
rain 1hr
in
rain 24hr
in
rain mn
in
humidity
%
barometer
mb
20180117220058 25 195 2.0 9.0 0.00 0.00 0.00 58 1030.6
20180117220031 24 195 1.0 9.0 0.00 0.00 0.00 58 1035.2
20180117215559 25 204 3.0 9.0 0.00 0.00 0.00 58 1030.6
20180117214527 24 204 2.0 10.0 0.00 0.00 0.00 58 1035.2
20180117214056 25 195 5.0 10.0 0.00 0.00 0.00 57 1030.6
20180117213604 25 204 4.0 10.0 0.00 0.00 0.00 57 1030.7
20180117213522 24 202 5.0 10.0 0.00 0.00 0.00 57 1035.3
20180117213057 25 217 4.0 11.0 0.00 0.00 0.00 57 1030.7
20180117212556 25 209 5.0 12.0 0.00 0.00 0.00 57 1030.7
20180117212103 25 0 5.0 12.0 0.00 0.00 0.00 57 1030.8
20180117211606 25 202 3.0 12.0 0.00 0.00 0.00 57 1030.9
20180117211516 24 227 6.0 12.0 0.00 0.00 0.00 57 1035.5
20180117211039 25 209 3.0 12.0 0.00 0.00 0.00 58 1030.9
20180117210542 25 209 4.0 12.0 0.00 0.00 0.00 57 1031.0
20180117210036 25 198 3.0 12.0 0.00 0.00 0.00 57 1031.0
20180117210024 24 225 5.0 12.0 0.00 0.00 0.00 57 1035.7
20180117205536 25 202 3.0 12.0 0.00 0.00 0.00 56 1031.0
20180117204533 25 190 5.0 13.0 0.00 0.00 0.00 56 1031.2
20180117204502 24 212 6.0 13.0 0.00 0.00 0.00 56 1035.8
20180117204028 25 213 5.0 10.0 0.00 0.00 0.00 57 1031.0
20180117203531 25 205 6.0 12.0 0.00 0.00 0.00 57 1031.0
20180117203454 24 211 6.0 11.0 0.00 0.00 0.00 57 1035.7
20180117202019 24 207 4.0 10.0 0.00 0.00 0.00 58 1031.5
20180117201923 24 208 6.0 10.0 0.00 0.00 0.00 58 1036.2
20180117201512 24 195 4.0 13.0 0.00 0.00 0.00 58 1031.6
20180117201011 24 214 3.0 13.0 0.00 0.00 0.00 57 1031.6
20180117200512 24 192 2.0 12.0 0.00 0.00 0.00 58 1031.6
20180117200417 24 213 0.0 12.0 0.00 0.00 0.00 58 1036.3
20180117200012 24 221 2.0 10.0 0.00 0.00 0.00 58 1031.7
20180117195509 24 230 2.0 11.0 0.00 0.00 0.00 58 1031.8
20180117195008 24 226 1.0 11.0 0.00 0.00 0.00 60 1031.9
20180117194911 24 199 3.0 9.0 0.00 0.00 0.00 60 1036.7
20180117194506 24 209 1.0 14.0 0.00 0.00 0.00 61 1032.1
20180117193507 23 199 2.0 13.0 0.00 0.00 0.00 61 1032.2
20180117193411 23 207 4.0 13.0 0.00 0.00 0.00 61 1036.9
20180117193007 23 207 1.0 12.0 0.00 0.00 0.00 63 1032.3
20180117192414 22 210 1.0 12.0 0.00 0.00 0.00 63 1037.1
20180117192004 22 233 2.0 14.0 0.00 0.00 0.00 62 1032.5
20180117191502 22 207 1.0 14.0 0.00 0.00 0.00 62 1032.5
20180117191002 22 209 1.0 9.0 0.00 0.00 0.00 64 1032.6
20180117190502 22 217 0.0 8.0 0.00 0.00 0.00 64 1032.7
20180117190418 21 220 1.0 8.0 0.00 0.00 0.00 64 1037.5
20180117185959 22 203 0.0 6.0 0.00 0.00 0.00 65 1032.7
20180117185500 21 186 1.0 7.0 0.00 0.00 0.00 65 1032.9
20180117184956 21 211 0.0 7.0 0.00 0.00 0.00 65 1033.0
20180117184423 20 208 0.0 13.0 0.00 0.00 0.00 66 1038.0
20180117183955 21 225 2.0 13.0 0.00 0.00 0.00 66 1033.3
20180117183428 20 212 1.0 12.0 0.00 0.00 0.00 66 1038.2
20180117182947 20 220 1.0 8.0 0.00 0.00 0.00 66 1033.7
20180117182450 20 209 0.0 5.0 0.00 0.00 0.00 66 1033.7
20180117181921 20 216 1.0 10.0 0.00 0.00 0.00 67 1033.7
20180117181423 20 250 0.0 10.0 0.00 0.00 0.00 66 1038.7
20180117180919 20 211 1.0 9.0 0.00 0.00 0.00 67 1034.0
20180117180416 20 198 1.0 14.0 0.00 0.00 0.00 67 1034.2
20180117175932 19 232 0.0 14.0 0.00 0.00 0.00 68 1039.2
20180117175915 19 226 2.0 14.0 0.00 0.00 0.00 67 1034.3
20180117175416 19 199 2.0 11.0 0.00 0.00 0.00 68 1034.5
20180117174916 19 235 3.0 15.0 0.00 0.00 0.00 68 1034.6
20180117174427 18 360 5.0 15.0 0.00 0.00 0.00 68 1039.5
20180117173917 19 0 4.0 15.0 0.00 0.00 0.00 68 1034.8
20180117173416 19 0 3.0 15.0 0.00 0.00 0.00 69 1035.0
20180117173343 18 360 3.0 13.0 0.00 0.00 0.00 69 1039.9
20180117172915 18 0 2.0 13.0 0.00 0.00 0.00 69 1035.1
20180117172414 18 0 1.0 13.0 0.00 0.00 0.00 69 1035.3
20180117171914 18 0 0.0 11.0 0.00 0.00 0.00 70 1035.4
20180117171843 18 360 0.0 11.0 0.00 0.00 0.00 70 1040.3
20180117171420 18 0 0.0 11.0 0.00 0.00 0.00 71 1035.5
20180117170913 17 0 0.0 9.0 0.00 0.00 0.00 70 1035.6
20180117170843 17 360 0.0 6.0 0.00 0.00 0.00 71 1040.5
20180117170411 17 182 0.0 10.0 0.00 0.00 0.00 72 1035.6
20180117165407 17 209 0.0 4.0 0.00 0.00 0.00 75 1035.7
20180117164841 16 219 0.0 10.0 0.00 0.00 0.00 76 1040.6
20180117164416 15 231 2.0 10.0 0.00 0.00 0.00 76 1035.7
20180117163901 15 249 1.0 10.0 0.00 0.00 0.00 78 1035.6
20180117163358 15 237 0.0 4.0 0.00 0.00 0.00 79 1035.6
20180117163335 14 232 0.0 4.0 0.00 0.00 0.00 79 1040.6
20180117162856 14 223 0.0 4.0 0.00 0.00 0.00 79 1035.7
20180117162354 13 202 0.0 1.0 0.00 0.00 0.00 81 1035.6
20180117161855 13 15 0.0 1.0 0.00 0.00 0.00 82 1035.7
20180117161828 12 15 0.0 1.0 0.00 0.00 0.00 82 1040.6
20180117161352 12 13 1.0 7.0 0.00 0.00 0.00 82 1035.7
20180117160849 11 12 2.0 9.0 0.00 0.00 0.00 83 1035.8
20180117160345 11 11 1.0 9.0 0.00 0.00 0.00 83 1035.7
20180117160324 10 11 3.0 9.0 0.00 0.00 0.00 83 1040.7
20180117155849 10 11 1.0 8.0 0.00 0.00 0.00 84 1035.8
20180117155347 10 11 1.0 8.0 0.00 0.00 0.00 85 1035.9
20180117154849 9 12 0.0 1.0 0.00 0.00 0.00 86 1035.9
20180117154818 9 13 0.0 1.0 0.00 0.00 0.00 86 1040.8
20180117154337 9 14 0.0 0.0 0.00 0.00 0.00 86 1035.9
20180117153837 8 0 0.0 0.0 0.00 0.00 0.00 87 1035.9
20180117153335 8 207 0.0 0.0 0.00 0.00 0.00 87 1035.8
20180117153308 7 207 0.0 0.0 0.00 0.00 0.00 87 1040.8
20180117152833 7 221 0.0 4.0 0.00 0.00 0.00 87 1035.7
20180117151824 7 194 0.0 1.0 0.00 0.00 0.00 87 1035.7
20180117151758 6 201 0.0 1.0 0.00 0.00 0.00 87 1040.7
20180117151323 6 198 0.0 0.0 0.00 0.00 0.00 87 1035.6
20180117150819 6 198 0.0 5.0 0.00 0.00 0.00 88 1035.7
20180117150322 6 201 0.0 5.0 0.00 0.00 0.00 88 1035.6
20180117150249 5 200 1.0 5.0 0.00 0.00 0.00 88 1040.6
20180117145815 5 198 0.0 4.0 0.00 0.00 0.00 88 1035.5
20180117145314 5 196 0.0 0.0 0.00 0.00 0.00 88 1035.4
20180117144812 4 191 0.0 2.0 0.00 0.00 0.00 88 1035.4
20180117144743 4 187 0.0 2.0 0.00 0.00 0.00 88 1040.4
20180117144316 4 196 0.0 2.0 0.00 0.00 0.00 88 1035.4
20180117143810 3 202 0.0 0.0 0.00 0.00 0.00 88 1035.4
20180117143739 3 190 0.0 0.0 0.00 0.00 0.00 88 1040.4
20180117143317 3 188 0.0 0.0 0.00 0.00 0.00 88 1035.4
20180117142808 2 188 0.0 4.0 0.00 0.00 0.00 87 1035.3
20180117141732 1 199 0.0 0.0 0.00 0.00 0.00 87 1040.3
20180117140803 1 203 0.0 0.0 0.00 0.00 0.00 87 1035.3
20180117140215 0 207 0.0 0.0 0.00 0.00 0.00 87 1040.3
20180117135807 0 207 0.0 0.0 0.00 0.00 0.00 87 1035.3
20180117135302 0 207 0.0 0.0 0.00 0.00 0.00 87 1035.4
20180117135210 0 207 0.0 0.0 0.00 0.00 0.00 87 1040.4
20180117134800 -1 207 0.0 0.0 0.00 0.00 0.00 87 1035.4
20180117133254 -1 209 0.0 0.0 0.00 0.00 0.00 87 1035.3
20180117133201 0 209 0.0 0.0 0.00 0.00 0.00 87 1040.2
20180117132754 -1 209 0.0 2.0 0.00 0.00 0.00 87 1035.3
20180117132250 -1 209 0.0 2.0 0.00 0.00 0.00 87 1035.3
20180117131748 -1 229 0.0 0.0 0.00 0.00 0.00 87 1035.4
20180117131655 0 229 0.0 0.0 0.00 0.00 0.00 87 1040.5
20180117131246 -1 236 0.0 0.0 0.00 0.00 0.00 87 1035.4
20180117130744 -1 244 0.0 0.0 0.00 0.00 0.00 87 1035.4
20180117130243 -2 244 0.0 0.0 0.00 0.00 0.00 86 1035.5
20180117130151 -1 244 0.0 0.0 0.00 0.00 0.00 86 1040.6
20180117125238 -2 244 0.0 0.0 0.00 0.00 0.00 86 1035.5
20180117124736 -2 244 0.0 0.0 0.00 0.00 0.00 86 1035.7
20180117124643 -1 244 0.0 0.0 0.00 0.00 0.00 86 1040.7
20180117124233 -2 244 0.0 0.0 0.00 0.00 0.00 86 1035.6
20180117123731 -2 244 0.0 0.0 0.00 0.00 0.00 86 1035.7
20180117123229 -2 244 0.0 0.0 0.00 0.00 0.00 86 1035.6
20180117123138 -1 244 0.0 0.0 0.00 0.00 0.00 86 1040.6
20180117122728 -2 244 0.0 0.0 0.00 0.00 0.00 86 1035.6
20180117122227 -2 245 0.0 0.0 0.00 0.00 0.00 86 1035.7
20180117121612 -1 246 0.0 0.0 0.00 0.00 0.00 86 1040.8
20180117121228 -2 246 0.0 0.0 0.00 0.00 0.00 86 1035.6
20180117120729 -2 246 0.0 0.0 0.00 0.00 0.00 86 1035.6
20180117120232 -2 247 0.0 0.0 0.00 0.00 0.00 86 1035.7
20180117120105 -1 247 0.0 0.0 0.00 0.00 0.00 86 1040.7
20180117115728 -1 247 0.0 0.0 0.00 0.00 0.00 86 1035.6
20180117115225 -1 248 0.0 0.0 0.00 0.00 0.00 86 1035.7
20180117114723 -1 249 0.0 0.0 0.00 0.00 0.00 86 1035.7
20180117114547 -1 249 0.0 0.0 0.00 0.00 0.00 86 1040.8
20180117114223 -1 249 0.0 0.0 0.00 0.00 0.00 86 1035.8
20180117114047 -1 249 0.0 0.0 0.00 0.00 0.00 86 1040.8
20180117113724 -1 249 0.0 0.0 0.00 0.00 0.00 86 1035.7
20180117113222 -1 250 0.0 0.0 0.00 0.00 0.00 86 1035.6
20180117112218 -1 254 0.0 0.0 0.00 0.00 0.00 86 1035.6
20180117111715 -1 256 0.0 0.0 0.00 0.00 0.00 86 1035.5
20180117111526 -1 256 0.0 0.0 0.00 0.00 0.00 86 1040.6
20180117111214 -1 257 0.0 0.0 0.00 0.00 0.00 86 1035.5
20180117110712 -1 263 0.0 0.0 0.00 0.00 0.00 86 1035.6
20180117110210 -1 264 0.0 0.0 0.00 0.00 0.00 86 1035.7
20180117110025 -1 264 0.0 0.0 0.00 0.00 0.00 86 1040.7
20180117105207 -1 264 0.0 0.0 0.00 0.00 0.00 86 1035.6
20180117104704 -2 265 0.0 0.0 0.00 0.00 0.00 86 1035.7
20180117104521 -1 265 0.0 0.0 0.00 0.00 0.00 86 1040.8
20180117104202 -1 265 0.0 0.0 0.00 0.00 0.00 86 1035.8
20180117103659 -2 266 0.0 0.0 0.00 0.00 0.00 86 1035.9
20180117103503 -1 266 0.0 0.0 0.00 0.00 0.00 86 1040.9
20180117102153 -1 266 0.0 0.0 0.00 0.00 0.00 86 1035.9
20180117101654 -1 266 0.0 0.0 0.00 0.00 0.00 86 1035.9
20180117101455 -1 266 0.0 0.0 0.00 0.00 0.00 86 1040.9
20180117101151 -2 266 0.0 0.0 0.00 0.00 0.00 86 1035.9
20180117100651 -2 266 0.0 0.0 0.00 0.00 0.00 86 1036.0
20180117095947 -1 266 0.0 0.0 0.00 0.00 0.00 86 1041.2
20180117095657 -2 266 0.0 0.0 0.00 0.00 0.00 86 1036.2
20180117095146 -2 266 0.0 0.0 0.00 0.00 0.00 86 1036.2
20180117094645 -2 266 0.0 0.0 0.00 0.00 0.00 86 1036.3
20180117094431 -1 267 0.0 0.0 0.00 0.00 0.00 86 1041.4
20180117094147 -2 267 0.0 0.0 0.00 0.00 0.00 86 1036.3
20180117093641 -2 267 0.0 0.0 0.00 0.00 0.00 86 1036.3
20180117093138 -2 267 0.0 0.0 0.00 0.00 0.00 86 1036.3
20180117092927 -1 267 0.0 0.0 0.00 0.00 0.00 86 1041.4
20180117092637 -2 267 0.0 0.0 0.00 0.00 0.00 86 1036.4
20180117092134 -2 267 0.0 0.0 0.00 0.00 0.00 86 1036.5
20180117091632 -2 267 0.0 0.0 0.00 0.00 0.00 86 1036.5
20180117091430 -1 267 0.0 0.0 0.00 0.00 0.00 86 1041.6
20180117091129 -1 267 0.0 0.0 0.00 0.00 0.00 87 1036.5
20180117090631 -1 267 0.0 0.0 0.00 0.00 0.00 87 1036.5
20180117085928 -1 267 0.0 0.0 0.00 0.00 0.00 86 1041.5
20180117085626 -2 267 0.0 0.0 0.00 0.00 0.00 86 1036.6
20180117085123 -2 267 0.0 0.0 0.00 0.00 0.00 87 1036.6
20180117084620 -2 267 0.0 0.0 0.00 0.00 0.00 87 1036.6
20180117084428 -1 267 0.0 0.0 0.00 0.00 0.00 87 1041.7
20180117084120 -2 267 0.0 0.0 0.00 0.00 0.00 87 1036.5
20180117083619 -2 267 0.0 0.0 0.00 0.00 0.00 87 1036.6
20180117082935 -2 268 0.0 0.0 0.00 0.00 0.00 87 1041.7
20180117082620 -2 269 0.0 0.0 0.00 0.00 0.00 87 1036.6
20180117082109 -3 269 0.0 0.0 0.00 0.00 0.00 86 1036.7
20180117081933 -2 269 0.0 0.0 0.00 0.00 0.00 86 1041.8
20180117081109 -3 269 0.0 0.0 0.00 0.00 0.00 86 1036.6
20180117080607 -3 269 0.0 0.0 0.00 0.00 0.00 86 1036.5
20180117080111 -3 269 0.0 0.0 0.00 0.00 0.00 86 1036.6
20180117075946 -2 269 0.0 0.0 0.00 0.00 0.00 86 1041.7
20180117075603 -3 270 0.0 0.0 0.00 0.00 0.00 86 1036.6
20180117075102 -3 269 0.0 0.0 0.00 0.00 0.00 86 1036.5
20180117074602 -3 269 0.0 0.0 0.00 0.00 0.00 86 1036.5
20180117074449 -2 269 0.0 0.0 0.00 0.00 0.00 86 1041.7
20180117074059 -3 269 0.0 0.0 0.00 0.00 0.00 86 1036.6
20180117073601 -3 269 0.0 0.0 0.00 0.00 0.00 86 1036.6
20180117073053 -3 269 0.0 0.0 0.00 0.00 0.00 86 1036.6
20180117072947 -3 269 0.0 0.0 0.00 0.00 0.00 86 1041.7
20180117072552 -3 269 0.0 0.0 0.00 0.00 0.00 86 1036.6
20180117072058 -3 269 0.0 0.0 0.00 0.00 0.00 86 1036.6
20180117071547 -3 270 0.0 0.0 0.00 0.00 0.00 86 1036.6
20180117071435 -3 269 0.0 0.0 0.00 0.00 0.00 86 1041.7
20180117070603 -3 269 0.0 0.0 0.00 0.00 0.00 85 1036.8
20180117070044 -3 269 0.0 0.0 0.00 0.00 0.00 85 1036.7
20180117065938 -3 269 0.0 0.0 0.00 0.00 0.00 85 1041.8
20180117065546 -3 269 0.0 0.0 0.00 0.00 0.00 86 1036.8
20180117065052 -3 269 0.0 0.0 0.00 0.00 0.00 86 1036.6
20180117064444 -2 269 0.0 0.0 0.00 0.00 0.00 86 1041.9
20180117064039 -3 269 0.0 0.0 0.00 0.00 0.00 86 1036.8
20180117063535 -3 269 0.0 0.0 0.00 0.00 0.00 86 1036.9
20180117063044 -3 269 0.0 0.0 0.00 0.00 0.00 86 1036.9
20180117062946 -2 269 0.0 0.0 0.00 0.00 0.00 86 1042.1
20180117062535 -3 269 0.0 0.0 0.00 0.00 0.00 86 1037.0
20180117062034 -3 269 0.0 0.0 0.00 0.00 0.00 86 1037.1
20180117061449 -2 269 0.0 0.0 0.00 0.00 0.00 86 1042.4
20180117061029 -3 269 0.0 0.0 0.00 0.00 0.00 86 1037.3
20180117060537 -3 269 0.0 0.0 0.00 0.00 0.00 86 1037.4
20180117060032 -3 269 0.0 0.0 0.00 0.00 0.00 85 1037.4
20180117055957 -3 269 0.0 0.0 0.00 0.00 0.00 85 1042.5
20180117055530 -3 269 0.0 0.0 0.00 0.00 0.00 85 1037.3
20180117055029 -3 269 0.0 0.0 0.00 0.00 0.00 85 1037.3
20180117054527 -3 269 0.0 0.0 0.00 0.00 0.00 85 1037.4
20180117054453 -3 269 0.0 0.0 0.00 0.00 0.00 85 1042.5
20180117054032 -3 270 0.0 0.0 0.00 0.00 0.00 85 1037.5
20180117053526 -3 270 0.0 0.0 0.00 0.00 0.00 85 1037.5
20180117053028 -3 270 0.0 0.0 0.00 0.00 0.00 85 1037.5
20180117052942 -2 270 0.0 0.0 0.00 0.00 0.00 85 1042.6
20180117052524 -3 270 0.0 0.0 0.00 0.00 0.00 85 1037.6
20180117051524 -3 270 0.0 0.0 0.00 0.00 0.00 85 1037.6
20180117051437 -2 270 0.0 0.0 0.00 0.00 0.00 85 1042.7
20180117051025 -3 270 0.0 0.0 0.00 0.00 0.00 85 1037.6
20180117050525 -3 270 0.0 0.0 0.00 0.00 0.00 85 1037.8
20180117050029 -2 270 0.0 0.0 0.00 0.00 0.00 85 1037.6
20180117045935 -2 270 0.0 0.0 0.00 0.00 0.00 85 1042.7
20180117045523 -2 270 0.0 0.0 0.00 0.00 0.00 85 1037.8
20180117045432 -2 270 0.0 0.0 0.00 0.00 0.00 85 1042.8
20180117045022 -2 270 0.0 0.0 0.00 0.00 0.00 85 1037.8
20180117044521 -3 270 0.0 0.0 0.00 0.00 0.00 85 1037.8
20180117044019 -2 270 0.0 0.0 0.00 0.00 0.00 85 1037.9
20180117043519 -2 270 0.0 0.0 0.00 0.00 0.00 85 1037.8
20180117043016 -3 270 0.0 0.0 0.00 0.00 0.00 85 1037.8
20180117042915 -2 270 0.0 0.0 0.00 0.00 0.00 85 1042.9
20180117042514 -3 271 0.0 0.0 0.00 0.00 0.00 84 1037.9
20180117042013 -2 271 0.0 0.0 0.00 0.00 0.00 85 1037.8
20180117041407 -1 271 0.0 0.0 0.00 0.00 0.00 85 1043.0
20180117041008 -2 271 0.0 0.0 0.00 0.00 0.00 85 1037.9
20180117040507 -2 271 0.0 0.0 0.00 0.00 0.00 85 1038.0
20180117040004 -2 271 0.0 0.0 0.00 0.00 0.00 84 1038.0
20180117035900 -1 271 0.0 0.0 0.00 0.00 0.00 84 1043.1
20180117035502 -2 271 0.0 0.0 0.00 0.00 0.00 84 1038.1
20180117034959 -1 271 0.0 0.0 0.00 0.00 0.00 84 1038.2
20180117034858 -1 271 0.0 0.0 0.00 0.00 0.00 84 1043.2
20180117034458 -1 271 0.0 0.0 0.00 0.00 0.00 84 1038.2
20180117033956 -1 271 0.0 0.0 0.00 0.00 0.00 84 1038.2
20180117033500 -1 271 0.0 0.0 0.00 0.00 0.00 84 1038.2
20180117032952 -1 271 0.0 0.0 0.00 0.00 0.00 84 1038.2
20180117032847 -1 271 0.0 0.0 0.00 0.00 0.00 84 1043.3
20180117032452 -1 271 0.0 0.0 0.00 0.00 0.00 84 1038.2
20180117031951 -1 271 0.0 0.0 0.00 0.00 0.00 84 1038.2
20180117031447 -1 271 0.0 0.0 0.00 0.00 0.00 84 1038.1
20180117031326 0 271 0.0 0.0 0.00 0.00 0.00 84 1043.2
20180117030945 -1 271 0.0 0.0 0.00 0.00 0.00 84 1038.2
20180117030443 0 271 0.0 0.0 0.00 0.00 0.00 84 1038.1
20180117025945 -1 271 0.0 0.0 0.00 0.00 0.00 84 1038.2
20180117025820 0 271 0.0 0.0 0.00 0.00 0.00 84 1043.2
20180117025445 0 271 0.0 0.0 0.00 0.00 0.00 84 1038.2
20180117024943 0 271 0.0 0.0 0.00 0.00 0.00 83 1038.3
20180117024441 0 271 0.0 0.0 0.00 0.00 0.00 83 1038.3
20180117024315 0 271 0.0 0.0 0.00 0.00 0.00 83 1043.4
20180117023938 0 271 0.0 0.0 0.00 0.00 0.00 83 1038.3
20180117023436 1 271 0.0 0.0 0.00 0.00 0.00 83 1038.3
20180117022935 1 271 0.0 0.0 0.00 0.00 0.00 84 1038.4
20180117022813 0 271 0.0 0.0 0.00 0.00 0.00 84 1043.4
20180117022435 1 271 0.0 0.0 0.00 0.00 0.00 83 1038.4
20180117021929 1 271 0.0 0.0 0.00 0.00 0.00 83 1038.5
20180117021428 2 271 0.0 0.0 0.00 0.00 0.00 84 1038.5
20180117021258 2 271 0.0 0.0 0.00 0.00 0.00 84 1043.6
20180117020926 2 270 0.0 0.0 0.00 0.00 0.00 84 1038.6
20180117015929 2 270 0.0 0.0 0.00 0.00 0.00 84 1038.5
20180117015750 2 270 0.0 0.0 0.00 0.00 0.00 84 1043.6
20180117015422 2 270 0.0 0.0 0.00 0.00 0.00 84 1038.5
20180117014919 2 270 0.0 0.0 0.00 0.00 0.00 84 1038.6
20180117014418 2 270 0.0 0.0 0.00 0.00 0.00 84 1038.6
20180117014238 2 270 0.0 0.0 0.00 0.00 0.00 84 1043.7
20180117013932 3 270 0.0 0.0 0.00 0.00 0.00 84 1038.6
20180117012914 3 270 0.0 0.0 0.00 0.00 0.00 84 1038.5
20180117012738 2 270 0.0 0.0 0.00 0.00 0.00 84 1043.7
20180117012415 3 270 0.0 0.0 0.00 0.00 0.00 84 1038.6
20180117011923 3 270 0.0 0.0 0.00 0.00 0.00 83 1038.6
20180117011422 3 270 0.0 0.0 0.00 0.00 0.00 83 1038.5
20180117011231 3 270 0.0 0.0 0.00 0.00 0.00 83 1043.6
20180117010421 3 271 0.0 0.0 0.00 0.00 0.00 83 1038.5
20180117005908 3 271 0.0 0.0 0.00 0.00 0.00 83 1038.5
20180117005744 3 271 0.0 0.0 0.00 0.00 0.00 83 1043.6
20180117005406 3 271 0.0 0.0 0.00 0.00 0.00 82 1038.4
20180117004904 3 271 0.0 0.0 0.00 0.00 0.00 82 1038.5
20180117004404 4 271 0.0 0.0 0.00 0.00 0.00 82 1038.5
20180117004253 3 271 0.0 0.0 0.00 0.00 0.00 82 1043.5
20180117003859 4 271 0.0 0.0 0.00 0.00 0.00 82 1038.5
20180117003359 4 272 0.0 0.0 0.00 0.00 0.00 82 1038.6
20180117002900 4 274 0.0 0.0 0.00 0.00 0.00 82 1038.6
20180117002756 3 275 0.0 0.0 0.00 0.00 0.00 82 1043.6
20180117002358 4 275 0.0 0.0 0.00 0.00 0.00 81 1038.5
20180117001900 4 275 0.0 0.0 0.00 0.00 0.00 81 1038.5
20180117001412 4 274 0.0 0.0 0.00 0.00 0.00 81 1038.5
20180117001259 4 274 0.0 0.0 0.00 0.00 0.00 81 1043.5
20180117000854 4 275 0.0 0.0 0.00 0.00 0.00 81 1038.5
20180117000402 5 279 0.0 0.0 0.00 0.00 0.00 80 1038.4
20180116235855 5 279 0.0 0.0 0.00 0.00 0.00 80 1038.4
20180116235753 4 279 0.0 0.0 0.00 0.00 0.00 80 1043.5
20180116235350 5 278 0.0 0.0 0.00 0.00 0.00 80 1038.3
20180116234849 5 278 0.0 0.0 0.00 0.00 0.00 80 1038.3
20180116234348 6 281 0.0 0.0 0.00 0.00 0.00 80 1038.3
20180116234256 5 281 0.0 0.0 0.00 0.00 0.00 80 1043.3
20180116233848 6 281 0.0 2.0 0.00 0.00 0.00 80 1038.3
20180116233347 6 281 0.0 2.0 0.00 0.00 0.00 79 1038.4
20180116233303 5 281 0.0 2.0 0.00 0.00 0.00 79 1043.5
20180116232845 6 279 0.0 0.0 0.00 0.00 0.00 79 1038.5
20180116232349 6 282 0.0 0.0 0.00 0.00 0.00 79 1038.4
20180116231843 6 284 0.0 0.0 0.00 0.00 0.00 79 1038.5
20180116231803 6 286 0.0 0.0 0.00 0.00 0.00 79 1043.5
20180116231340 7 292 0.0 2.0 0.00 0.00 0.00 79 1038.4
20180116230843 7 294 0.0 2.0 0.00 0.00 0.00 79 1038.5
20180116230338 7 281 0.0 1.0 0.00 0.00 0.00 78 1038.6
20180116225839 7 300 0.0 7.0 0.00 0.00 0.00 78 1038.7
20180116225811 7 287 0.0 7.0 0.00 0.00 0.00 78 1043.7
20180116225337 7 290 1.0 9.0 0.00 0.00 0.00 78 1038.7
20180116224837 7 290 2.0 9.0 0.00 0.00 0.00 78 1038.7
20180116224333 8 293 3.0 9.0 0.00 0.00 0.00 78 1038.7
20180116224308 7 299 2.0 9.0 0.00 0.00 0.00 78 1043.7
20180116223841 8 297 2.0 9.0 0.00 0.00 0.00 77 1038.6
20180116223331 8 280 2.0 8.0 0.00 0.00 0.00 77 1038.6
20180116222834 8 290 2.0 9.0 0.00 0.00 0.00 77 1038.7
20180116222806 7 289 2.0 8.0 0.00 0.00 0.00 77 1043.7
20180116222337 8 294 3.0 9.0 0.00 0.00 0.00 77 1038.7
20180116221833 8 289 3.0 9.0 0.00 0.00 0.00 77 1038.6
20180116221335 8 277 2.0 9.0 0.00 0.00 0.00 77 1038.7
20180116221259 7 279 3.0 9.0 0.00 0.00 0.00 77 1043.8
20180116220826 8 306 1.0 7.0 0.00 0.00 0.00 77 1038.7
20180116220338 8 300 2.0 9.0 0.00 0.00 0.00 77 1038.7